• In Belarus
  • List of Countries
  • For 7 days
  • Water Temperature
  • Satellite Maps
  • Weather Map
  • Weather Widgets
  • user-avatar
    Login

    Hourly Weather Bartodzieje

    Today, 17 February, Sunday

    Time Temperature Precipitation Wind Pressure Humidity
    00:00 +5°C° 0 mm 3 mps 762 mmHg 65%
    01:00 +5°C° 0 mm 3 mps 762 mmHg 65%
    02:00 +4°C° 0 mm 3 mps 762 mmHg 69%
    03:00 +4°C° 0 mm 3 mps 762 mmHg 72%
    04:00 +3°C° 0 mm 3 mps 762 mmHg 75%
    05:00 +3°C° 0 mm 3 mps 762 mmHg 77%
    06:00 +3°C° 0 mm 3 mps 762 mmHg 79%
    07:00 +3°C° 0 mm 2 mps 762 mmHg 80%
    08:00 +3°C° 0 mm 3 mps 762 mmHg 75%
    09:00 +4°C° 0 mm 3 mps 762 mmHg 70%
    10:00 +7°C° 0 mm 3 mps 762 mmHg 65%
    11:00 +8°C° 0 mm 2 mps 762 mmHg 60%
    12:00 +10°C° 0 mm 2 mps 762 mmHg 56%
    13:00 +13°C° 0 mm 1 mps 762 mmHg 50%
    14:00 +13°C° 0 mm 1 mps 761 mmHg 52%
    15:00 +12°C° 0 mm 1 mps 761 mmHg 54%
    16:00 +11°C° 0 mm 0 mps 761 mmHg 56%
    17:00 +10°C° 0 mm 0 mps 761 mmHg 59%
    18:00 +9°C° 0 mm 0 mps 761 mmHg 62%
    19:00 +9°C° 0 mm 1 mps 761 mmHg 65%
    20:00 +8°C° 0 mm 1 mps 761 mmHg 68%
    21:00 +8°C° 0 mm 1 mps 761 mmHg 70%
    22:00 +7°C° 0 mm 1 mps 761 mmHg 72%
    23:00 +7°C° 0 mm 1 mps 761 mmHg 73%

    Tomorrow, 18 February, Monday

    Time Temperature Precipitation Wind Pressure Humidity
    00:00 +6°C° 0 mm 1 mps 761 mmHg 74%
    01:00 +6°C° 0 mm 1 mps 761 mmHg 75%
    02:00 +6°C° 0 mm 1 mps 760 mmHg 74%
    03:00 +5°C° 0 mm 1 mps 760 mmHg 72%
    04:00 +5°C° 0 mm 1 mps 760 mmHg 71%
    05:00 +5°C° 0 mm 1 mps 760 mmHg 70%
    06:00 +4°C° 0 mm 1 mps 760 mmHg 69%
    07:00 +4°C° 0 mm 1 mps 760 mmHg 68%
    08:00 +6°C° 0 mm 1 mps 760 mmHg 63%
    09:00 +7°C° 0 mm 1 mps 760 mmHg 59%
    10:00 +8°C° 0 mm 1 mps 760 mmHg 54%
    11:00 +10°C° 0 mm 1 mps 759 mmHg 50%
    12:00 +11°C° 0 mm 1 mps 759 mmHg 46%
    13:00 +12°C° 0 mm 1 mps 759 mmHg 42%
    14:00 +12°C° 0 mm 1 mps 758 mmHg 44%
    15:00 +12°C° 0 mm 1 mps 758 mmHg 46%
    16:00 +12°C° 0 mm 1 mps 758 mmHg 48%
    17:00 +11°C° 0 mm 1 mps 758 mmHg 52%
    18:00 +9°C° 0 mm 2 mps 758 mmHg 56%
    19:00 +7°C° 0 mm 2 mps 757 mmHg 60%
    20:00 +7°C° 0 mm 2 mps 757 mmHg 62%
    21:00 +6°C° 0 mm 2 mps 757 mmHg 64%
    22:00 +6°C° 0 mm 2 mps 757 mmHg 66%
    23:00 +5°C° 0 mm 2 mps 757 mmHg 65%

    Day after tomorrow, 19 February, Tuesday

    Time Temperature Precipitation Wind Pressure Humidity
    00:00 +5°C° 0 mm 2 mps 757 mmHg 63%
    01:00 +4°C° 0 mm 2 mps 757 mmHg 62%
    02:00 +4°C° 0 mm 2 mps 756 mmHg 63%
    03:00 +4°C° 0 mm 2 mps 756 mmHg 65%
    04:00 +4°C° 0 mm 2 mps 755 mmHg 67%
    05:00 +2°C° 0 mm 3 mps 755 mmHg 68%
    06:00 +2°C° 0 mm 3 mps 755 mmHg 69%
    07:00 +2°C° 0 mm 3 mps 755 mmHg 71%
    08:00 +4°C° 0 mm 3 mps 755 mmHg 65%
    09:00 +6°C° 0 mm 4 mps 755 mmHg 59%
    10:00 +7°C° 0 mm 4 mps 755 mmHg 54%
    11:00 +8°C° 0 mm 5 mps 755 mmHg 52%
    12:00 +10°C° 0 mm 5 mps 754 mmHg 50%
    13:00 +11°C° 0 mm 6 mps 754 mmHg 48%
    14:00 +10°C° 0 mm 5 mps 754 mmHg 52%
    15:00 +10°C° 0 mm 5 mps 754 mmHg 56%
    16:00 +11°C° 0 mm 4 mps 754 mmHg 61%
    17:00 +10°C° 0.4 mm 4 mps 754 mmHg 69%
    18:00 +7°C° 0.4 mm 5 mps 754 mmHg 77%
    19:00 +6°C° 0.4 mm 5 mps 755 mmHg 85%
    20:00 +6°C° 0.3 mm 5 mps 755 mmHg 84%
    21:00 +6°C° 0.3 mm 5 mps 755 mmHg 84%
    22:00 +6°C° 0.3 mm 4 mps 756 mmHg 83%
    23:00 +5°C° 0 mm 4 mps 756 mmHg 85%

    20 February, Wednesday

    Time Temperature Precipitation Wind Pressure Humidity
    00:00 +3°C° 0 mm 5 mps 756 mmHg 86%
    01:00 +3°C° 0 mm 5 mps 757 mmHg 87%
    02:00 +2°C° 0 mm 5 mps 757 mmHg 88%
    03:00 +2°C° 0 mm 5 mps 757 mmHg 90%
    04:00 +2°C° 0 mm 5 mps 757 mmHg 91%
    05:00 +3°C° 0 mm 4 mps 757 mmHg 90%
    06:00 +3°C° 0 mm 4 mps 758 mmHg 90%
    07:00 +4°C° 0 mm 4 mps 758 mmHg 89%
    08:00 +3°C° 0 mm 5 mps 758 mmHg 85%
    09:00 +5°C° 0 mm 5 mps 758 mmHg 81%
    10:00 +4°C° 0 mm 6 mps 759 mmHg 78%
    11:00 +5°C° 0 mm 6 mps 759 mmHg 74%
    12:00 +5°C° 0 mm 6 mps 759 mmHg 71%
    13:00 +7°C° 0 mm 6 mps 759 mmHg 67%
    14:00 +7°C° 0 mm 5 mps 759 mmHg 67%
    15:00 +7°C° 0 mm 5 mps 759 mmHg 67%
    16:00 +7°C° 0 mm 4 mps 759 mmHg 67%
    17:00 +6°C° 0 mm 4 mps 760 mmHg 70%
    18:00 +6°C° 0 mm 4 mps 760 mmHg 74%
    19:00 +5°C° 0 mm 3 mps 760 mmHg 77%
    20:00 +5°C° 0 mm 3 mps 760 mmHg 79%
    21:00 +4°C° 0 mm 3 mps 761 mmHg 82%
    22:00 +3°C° 0 mm 3 mps 761 mmHg 84%
    23:00 +3°C° 0 mm 3 mps 761 mmHg 85%

    21 February, Thursday

    Time Temperature Precipitation Wind Pressure Humidity
    00:00 +3°C° 0 mm 3 mps 761 mmHg 86%
    01:00 +3°C° 0 mm 3 mps 761 mmHg 87%
    02:00 +3°C° 0 mm 3 mps 761 mmHg 88%
    03:00 +3°C° 0 mm 3 mps 761 mmHg 88%
    04:00 +3°C° 0 mm 3 mps 761 mmHg 89%
    05:00 +3°C° 0 mm 3 mps 761 mmHg 88%
    06:00 +3°C° 0 mm 3 mps 761 mmHg 87%
    07:00 +3°C° 0 mm 3 mps 762 mmHg 86%
    08:00 +4°C° 0 mm 4 mps 762 mmHg 82%
    09:00 +4°C° 0 mm 4 mps 762 mmHg 79%
    10:00 +5°C° 0 mm 4 mps 762 mmHg 75%
    11:00 +6°C° 0 mm 4 mps 762 mmHg 73%
    12:00 +7°C° 0 mm 4 mps 762 mmHg 71%
    13:00 +7°C° 0 mm 5 mps 762 mmHg 69%
    14:00 +7°C° 0.1 mm 4 mps 762 mmHg 72%
    15:00 +7°C° 0.1 mm 4 mps 762 mmHg 76%
    16:00 +6°C° 0.1 mm 4 mps 762 mmHg 79%
    17:00 +7°C° 0.1 mm 3 mps 762 mmHg 83%
    18:00 +7°C° 0.1 mm 3 mps 762 mmHg 86%
    19:00 +5°C° 0.1 mm 3 mps 762 mmHg 89%
    20:00 +6°C° 0.1 mm 2 mps 763 mmHg 91%
    21:00 +6°C° 0.1 mm 2 mps 763 mmHg 93%
    22:00 +7°C° 0.1 mm 1 mps 763 mmHg 95%
    23:00 +7°C° 0.2 mm 1 mps 764 mmHg 96%

    22 February, Friday

    Time Temperature Precipitation Wind Pressure Humidity
    00:00 +7°C° 0.2 mm 1 mps 764 mmHg 96%
    01:00 +7°C° 0.2 mm 1 mps 764 mmHg 97%
    02:00 +6°C° 0 mm 1 mps 764 mmHg 97%
    03:00 +6°C° 0 mm 1 mps 765 mmHg 97%
    04:00 +6°C° 0 mm 1 mps 765 mmHg 97%
    05:00 +6°C° 0 mm 1 mps 766 mmHg 97%
    06:00 +5°C° 0 mm 2 mps 766 mmHg 97%
    07:00 +5°C° 0 mm 2 mps 767 mmHg 97%
    08:00 +6°C° 0 mm 2 mps 768 mmHg 94%
    09:00 +7°C° 0 mm 2 mps 768 mmHg 90%
    10:00 +7°C° 0 mm 2 mps 769 mmHg 87%
    11:00 +8°C° 0 mm 2 mps 769 mmHg 82%
    12:00 +9°C° 0 mm 2 mps 770 mmHg 77%
    13:00 +9°C° 0 mm 2 mps 770 mmHg 72%
    14:00 +9°C° 0 mm 2 mps 770 mmHg 73%
    15:00 +9°C° 0 mm 2 mps 771 mmHg 74%
    16:00 +9°C° 0 mm 2 mps 771 mmHg 75%
    17:00 +8°C° 0 mm 2 mps 771 mmHg 78%
    18:00 +8°C° 0 mm 2 mps 772 mmHg 82%
    19:00 +7°C° 0 mm 2 mps 772 mmHg 85%
    20:00 +8°C° 0 mm 1 mps 773 mmHg 86%
    21:00 +8°C° 0 mm 1 mps 773 mmHg 87%
    22:00 +8°C° 0 mm 1 mps 773 mmHg 88%
    23:00 +7°C° 0 mm 1 mps 773 mmHg 89%
    Show more